Find Cartosat 2B

NORAD ID: 36795 Int'l Des: 2010-035 Owner: ISRO Country: IN operational
LEOCIRCULARRETROGRADESSO

リアルタイム位置

3D地球を読み込み中...

Cartosat 2Bについて

説明を読み込み中...

次回通過

Passes for default location (London). Set your location on the main map for personalized predictions.

高度履歴

Loading altitude history...

軌道要素

1 36795U 10035A 26134.30123079 .00000431 00000-0 65983-4 0 9993
2 36795 97.9983 185.0628 0010240 305.0068 55.0182 14.78616467854846
Epoch: May 14, 2026 • Age: 10 hours

現在のステータス

高度 641.6 km
速度 7.54 km/s
衛星直下点 43.88°N, 47.69°E
打ち上げ日 Jul 12, 2010
運用期間 15.8 years
タイプ other

技術仕様

分類 Payload
質量 694.00 kg
乾燥質量 600.00 kg
総質量 694.00 kg
長さ 2.00 m
直径 2.00 m
スパン 6.00 m
形状 Hex Cyl + 2 Pan
製造者 ISRO
バスタイプ IRS-2
フェーズステータス In Orbit
所有者/国 ISRO/IN

Most Searched